Pagina principale
METAR-TAF:

METAR-TAF

Aeroporti :

Aeroporto di Albenga

Albenga, Italia

latitudine: 44-03N, longitudine: 008-07E, altezza: 45 m

Osservazione

Il bollettino è stato emesso 8 ore e 1 minuti fa, alle 16:50 UTC
Vento 4 kt da est
Temperature 12°C
Umidità 82%
Pressione 1027 hPa
Visibilità 10 km o più
Nuvoloso ad un'altezza di 3000 ft

METAR: LIMG 171650Z 09004KT 9999 BKN030 12/09 Q1027

Ora: 01:51 (00:51 UTC)


TAF: mancante

Osservazioni e previsioni meteorologiche di più di 4000 aeroporti (messaggi METAR e TAF).

Le stazioni disponibili sono rappresentate dai dischi gialli e rossi sulla carta.

Puntare il mouse per vedere il nome della stazione.

Clicca sopra per visualizzare le osservazioni e previsioni meteorologiche.

Per cambiare la mappa : fare clic sui pulsanti verdi con una croce nera per ingrandire, il pulsante verde con un trattino per diminuire, o sulla freccia verde per le mappe adiacenti.


METAR-TAF: